Wind_Speed
51 51 52 53 54 54 55 56 57 58 59 60 60 61 62 63 64 65 66 67 68 68 69 70 71 71 72 73 73 74 74 75 75 76 76 77 78 78 79 79 80 80 81 81 82 82 82 83 83 83 83 83 84 84 84 84 85 86 87 88 89 91 93 95 96 96 96 97 98 97 98 97 96 96 95 94 93 94 94 95 95 95 95 95 93
50 51 52 53 54 55 56 57 58 59 60 61 62 62 63 64 65 66 67 68 68 69 70 70 71 71 72 73 73 74 74 75 75 76 76 77 77 78 78 79 80 80 81 81 82 82 83 83 84 84 85 85 85 86 86 86 86 86 87 88 88 89 91 92 94 95 95 96 98 98 99 99 98 97 97 97 96 95 95 95 95 96 97 97 96
51 52 53 54 55 56 57 58 59 60 61 62 63 63 64 65 66 66 67 68 68 69 69 70 70 71 71 72 72 73 73 74 74 74 75 75 76 77 77 78 79 79 80 81 81 82 83 83 84 85 85 86 86 87 88 88 88 88 89 89 90 90 91 92 92 93 94 94 96 98 99 100 100 99 99 99 98 98 97 96 96 96 97 97 98
52 53 54 55 56 57 58 59 60 61 62 63 63 64 64 65 66 66 67 67 68 68 68 69 69 69 70 70 70 71 71 72 72 72 73 73 73 74 75 76 76 77 78 79 79 80 81 82 83 84 84 85 86 87 88 89 89 90 90 91 92 92 92 93 94 94 94 93 94 96 98 99 100 100 101 101 100 99 99 99 98 97 97 97 98
53 54 55 56 57 58 59 60 61 61 62 63 63 64 64 65 65 66 66 66 66 66 67 67 67 67 68 68 68 68 69 69 69 69 69 70 70 71 72 73 74 75 75 76 77 78 79 80 81 82 82 83 84 85 87 87 88 89 90 91 92 93 93 94 95 96 96 95 95 95 96 98 99 100 101 103 103 101 100 100 100 99 99 98 98
54 55 56 57 58 59 59 60 61 62 62 63 63 63 63 63 64 64 64 64 64 65 65 65 65 65 65 65 65 66 66 66 66 66 67 67 68 69 70 71 72 73 74 75 75 76 77 78 79 80 81 81 82 83 84 85 86 87 88 90 91 92 93 94 95 96 96 97 97 97 97 98 99 99 100 102 103 104 103 102 100 100 100 100 99
54 56 56 57 58 59 60 60 61 61 61 61 61 61 62 62 62 63 63 63 63 63 63 63 63 63 63 63 63 63 64 64 64 65 65 66 67 68 69 70 71 72 73 74 74 75 76 76 77 78 79 79 80 81 82 82 83 84 86 87 88 89 91 92 93 94 95 96 97 97 99 100 101 101 101 102 103 104 105 105 103 101 101 101 100
55 56 57 58 59 59 59 59 59 59 60 60 60 60 61 61 62 62 61 61 61 61 61 60 61 61 61 61 62 62 63 63 64 64 65 65 66 67 67 68 69 70 71 71 72 73 74 74 75 76 76 77 78 79 80 80 81 82 83 84 85 87 88 89 91 92 93 94 95 96 98 99 101 103 103 104 104 104 105 107 106 104 103 101 100
56 57 57 58 58 58 58 58 58 58 59 59 60 60 60 60 60 60 60 59 59 59 59 59 60 60 61 61 62 62 63 63 64 64 64 64 64 65 65 66 67 68 68 69 70 71 71 72 72 73 74 75 76 77 78 79 80 80 81 82 83 84 86 87 89 90 92 92 93 95 96 97 99 101 103 104 105 105 106 107 108 107 106 104 102
56 57 57 57 57 56 57 57 58 58 59 59 59 59 59 58 58 58 58 58 58 58 58 59 59 60 61 61 62 62 62 63 63 63 63 63 63 63 64 65 66 66 67 67 68 68 69 69 70 71 72 72 73 75 76 77 78 79 80 81 83 84 85 86 87 89 90 91 92 94 95 96 97 99 101 102 104 105 106 107 108 108 108 108 105
56 56 56 56 56 56 56 57 57 58 58 58 58 57 57 57 57 57 57 57 57 58 58 59 59 60 61 61 61 62 62 62 62 62 62 63 63 63 64 65 65 66 66 66 66 67 67 68 69 69 70 71 72 73 75 76 77 78 79 80 82 83 84 86 87 88 89 91 91 93 94 95 96 98 100 101 102 103 104 106 107 108 109 110 108
55 55 55 55 55 56 56 57 57 57 56 56 56 56 56 56 56 56 56 57 57 58 58 59 59 60 60 60 61 61 61 61 61 61 62 63 63 63 64 64 65 65 66 66 66 66 67 68 69 69 70 71 72 73 74 75 76 77 78 79 80 82 83 85 86 87 89 90 90 91 92 94 95 96 98 100 102 102 103 104 105 107 108 109 110
54 54 54 55 55 56 56 56 56 55 55 55 55 55 55 55 55 56 56 57 57 58 59 59 59 59 59 60 60 60 60 60 61 62 62 63 63 63 64 65 65 65 66 66 67 67 68 68 69 70 71 72 73 74 74 75 75 76 77 78 78 79 81 82 84 86 88 89 89 89 90 92 93 94 96 99 100 101 102 103 104 105 106 107 108
53 54 54 55 55 55 55 55 54 54 54 54 54 55 55 55 55 56 57 57 58 58 59 59 59 59 59 59 60 60 60 60 61 62 62 63 63 64 64 65 65 66 67 67 68 69 69 70 70 71 72 73 74 74 75 75 75 75 76 76 77 78 79 80 82 84 85 86 87 87 88 90 91 92 93 95 97 99 100 101 102 103 105 106 106
54 54 54 54 54 54 54 54 54 54 54 54 54 55 55 56 56 56 57 57 58 58 58 58 58 58 58 58 59 60 60 61 61 62 62 63 63 64 65 66 66 67 68 69 69 70 71 71 72 73 73 74 75 75 76 76 76 76 75 75 75 76 77 78 79 81 81 82 83 84 85 86 87 88 89 91 93 95 97 98 99 101 103 104 104
53 53 54 54 53 53 53 53 54 54 54 54 55 55 55 56 56 57 57 57 57 57 57 57 58 58 58 58 58 60 61 61 61 62 62 63 64 64 65 66 67 68 69 70 70 71 72 73 74 74 75 75 76 76 77 77 77 76 76 75 75 75 75 77 78 78 78 79 79 80 81 82 83 84 85 86 88 90 92 93 94 96 99 101 101
53 53 53 53 52 52 53 53 54 54 54 54 55 55 56 56 56 56 57 57 57 56 57 57 57 57 58 58 58 60 61 61 62 62 63 64 64 65 66 67 68 69 70 70 71 72 73 74 75 76 76 77 77 77 78 78 78 77 76 75 74 74 74 75 75 75 75 75 76 77 77 77 78 78 79 81 83 85 87 87 88 91 93 95 97
53 53 52 52 51 52 52 53 53 54 54 54 55 55 55 56 56 56 56 56 56 56 57 57 57 57 57 58 59 59 60 61 62 63 63 64 65 65 66 67 69 69 70 71 72 73 74 75 76 77 78 78 78 78 79 79 79 78 77 75 74 73 73 73 72 71 71 71 72 73 73 73 74 74 75 76 77 79 81 82 83 85 87 89 91
52 52 51 50 51 52 52 53 53 53 53 54 54 55 55 55 55 55 55 55 56 57 57 57 57 57 58 58 59 60 60 61 62 63 64 65 66 66 67 68 69 70 71 71 72 73 74 75 76 78 79 79 80 80 80 80 80 79 77 74 73 73 72 72 70 69 68 68 68 68 68 69 70 70 71 71 72 74 75 76 78 80 81 83 84
51 51 50 50 51 52 52 53 53 53 53 53 54 55 55 55 54 54 55 55 56 57 57 57 57 58 58 59 59 60 60 61 63 64 64 66 67 68 68 69 70 71 71 72 73 73 74 75 76 78 79 80 80 80 80 80 79 78 76 74 73 73 71 70 69 68 67 66 65 65 65 65 66 67 67 68 68 70 70 71 73 74 76 77 78
50 50 50 50 51 52 52 53 53 53 53 53 54 54 55 54 54 54 55 56 57 57 57 57 57 58 59 59 60 61 61 62 63 64 65 66 68 69 69 70 71 72 72 73 74 74 75 76 76 78 79 80 79 79 78 78 77 76 74 73 73 72 71 69 67 66 65 64 63 62 62 63 63 64 64 65 65 66 66 67 68 69 71 72 73
50 50 50 50 51 52 52 52 53 53 53 53 54 54 54 54 54 55 56 57 58 58 58 58 58 58 59 60 60 61 62 62 63 65 66 67 68 69 70 71 72 73 74 74 75 75 76 76 77 78 79 79 78 78 76 75 74 73 72 72 71 70 70 68 66 65 63 62 61 61 61 61 61 61 62 62 62 63 63 64 65 65 66 68 69
50 50 50 50 51 52 52 52 52 53 53 53 53 54 54 54 55 56 57 58 58 58 58 58 58 58 59 60 61 62 62 63 64 65 67 68 69 70 71 72 73 74 75 75 76 76 76 77 78 79 79 78 77 76 74 73 72 71 70 69 69 68 68 66 65 63 62 61 60 59 59 59 59 59 59 59 59 60 60 61 61 62 62 63 64
50 50 50 51 51 52 52 52 52 53 53 53 53 54 54 55 56 57 58 58 58 58 58 58 59 59 59 60 61 62 63 64 65 66 67 69 70 71 72 73 74 75 76 76 77 77 77 78 79 80 79 78 76 73 71 70 70 69 68 68 67 66 66 64 62 61 60 59 58 58 58 58 57 57 57 57 56 57 57 58 58 59 60 60 60
50 50 51 51 51 52 52 52 53 53 53 53 54 55 55 56 57 58 59 59 58 58 58 59 59 60 60 60 62 63 63 64 66 67 68 69 70 71 72 73 74 75 76 77 77 78 78 79 80 80 79 76 73 71 69 68 68 68 67 66 66 65 64 63 60 59 58 57 57 56 56 56 55 55 55 54 54 54 54 54 55 56 57 57 57
50 51 51 51 52 52 52 53 53 53 53 54 55 56 56 57 58 59 59 59 58 58 59 60 60 60 61 61 62 63 64 65 67 68 69 70 71 72 73 74 75 75 76 77 78 79 79 79 79 79 77 74 71 69 67 67 66 66 65 65 65 65 64 61 59 57 56 55 55 54 54 54 53 53 52 52 51 52 52 52 52 53 54 55 54
50 51 51 52 52 52 53 53 53 54 54 55 56 57 58 58 59 59 59 59 59 59 60 61 61 61 61 62 63 64 65 66 68 69 70 71 72 73 73 74 75 75 76 77 78 79 79 78 78 77 74 71 69 67 66 65 65 64 64 64 64 64 63 61 58 57 55 54 53 53 52 51 50 50 50 49 49 50 50 50 50 50 51 52 52
50 51 52 52 52 53 53 53 54 54 55 56 56 58 58 59 59 58 59 59 59 60 61 61 62 62 62 63 64 64 65 67 69 70 71 72 73 73 74 74 75 76 76 78 79 79 78 77 75 73 70 67 65 64 63 63 63 62 62 62 63 63 61 59 57 56 55 53 52 51 50 49 48 48 47 47 47 48 48 48 48 48 49 50 50
51 51 52 52 52 53 54 54 55 55 55 56 57 58 58 58 58 58 59 59 60 61 62 62 62 62 63 63 65 66 66 68 70 71 72 72 73 74 74 74 75 76 77 78 79 78 77 75 73 70 67 65 63 62 61 61 61 60 60 61 62 61 60 58 56 55 54 53 51 49 48 47 46 46 45 45 45 46 47 47 47 47 48 48 48
51 51 52 52 53 54 54 55 55 55 56 56 57 57 58 58 58 58 59 60 61 62 62 62 63 63 64 65 66 67 68 69 70 72 72 73 73 74 74 75 76 77 78 79 79 78 76 74 70 67 65 63 61 60 59 59 59 58 58 60 61 60 58 57 55 54 52 51 49 47 46 45 44 44 44 44 44 44 45 46 47 47 47 47 46
50 51 52 53 53 54 54 54 55 55 56 57 57 57 57 57 58 59 60 61 61 62 63 63 64 64 65 66 67 68 69 70 71 72 73 73 74 74 74 75 76 77 79 79 79 76 74 71 67 65 63 61 59 58 58 57 57 56 56 58 59 58 56 55 54 52 51 49 47 46 45 44 43 43 43 43 42 43 44 45 46 46 46 46 46
50 51 52 52 53 53 53 54 55 56 56 57 57 57 57 58 58 59 60 61 62 63 64 65 65 66 67 68 68 69 70 71 72 72 73 74 74 74 75 76 77 77 78 78 77 74 71 68 65 62 61 59 58 57 56 56 55 55 55 56 56 55 54 53 52 51 49 48 46 45 44 44 43 42 42 42 42 42 43 44 45 45 45 45 45
49 50 51 51 52 52 53 54 56 56 57 57 57 58 58 58 59 60 61 62 63 64 65 66 67 68 69 70 70 70 70 71 72 72 73 73 74 75 76 76 77 77 77 76 73 71 68 65 63 61 59 57 56 55 55 55 54 54 55 55 54 53 52 51 50 48 47 45 45 44 43 42 41 41 40 41 42 42 43 43 43 43 44 44 44
49 50 51 51 52 53 54 56 57 57 57 58 58 58 59 59 59 60 61 62 64 65 67 68 69 69 70 71 71 71 71 72 72 73 73 74 75 76 76 76 76 76 75 73 70 67 65 63 60 59 57 56 55 54 54 53 53 53 54 54 52 51 50 49 49 47 44 43 43 43 41 40 40 39 39 40 42 42 42 42 42 43 44 45 46
49 50 51 53 53 54 55 56 57 58 58 58 59 59 59 60 60 61 62 64 65 67 68 70 71 71 71 71 71 71 72 72 73 73 74 75 76 77 77 76 75 73 72 69 67 64 62 60 58 56 55 54 54 53 53 52 52 52 53 52 50 49 48 48 47 45 43 42 42 41 39 39 39 39 39 40 40 40 40 41 42 44 46 47 48
51 52 53 54 55 56 56 57 57 58 58 59 59 60 60 61 62 63 64 66 67 68 70 71 71 72 72 72 72 72 73 73 73 74 75 76 77 77 76 74 72 70 67 65 63 62 60 58 56 54 53 53 52 52 51 51 51 51 51 49 47 46 46 46 46 43 41 41 40 38 37 37 38 39 39 39 39 40 40 42 43 45 48 49 50
53 53 54 55 56 56 57 57 58 58 59 60 60 61 62 63 64 65 66 68 69 70 71 71 72 72 72 73 74 73 73 73 74 75 76 77 77 76 74 72 69 66 64 62 60 59 57 56 54 53 52 51 51 50 50 49 49 50 49 47 45 45 44 44 43 41 40 39 37 36 36 37 38 38 38 38 38 39 41 43 45 47 48 50 50
54 54 55 56 56 57 57 58 59 60 60 61 62 63 64 65 67 68 68 69 70 71 71 72 72 73 73 74 75 74 74 75 75 76 76 76 75 74 71 68 65 63 61 60 58 56 55 53 52 51 51 50 49 49 48 48 48 48 47 44 43 43 43 42 41 40 38 36 35 35 35 36 37 37 37 37 38 40 42 44 46 47 47 47 47
55 55 56 57 57 58 59 60 60 62 62 63 65 66 67 68 69 70 70 71 71 72 72 73 73 74 75 76 76 76 76 77 77 76 75 74 72 70 68 65 63 61 59 57 56 54 53 51 50 50 49 48 48 47 47 47 47 47 45 42 41 41 41 40 39 38 36 34 33 33 34 35 35 35 36 37 39 41 43 44 45 45 45 44 44
55 56 57 58 59 59 60 61 63 64 65 66 67 68 69 70 71 72 72 72 72 73 74 74 75 76 77 78 78 78 78 77 76 75 73 71 69 67 64 62 60 59 57 55 54 52 51 49 49 48 48 47 46 46 46 46 46 45 42 40 39 39 40 39 37 35 33 32 32 32 33 34 34 34 36 38 40 41 42 42 43 43 43 42 41
56 57 58 59 60 62 63 64 65 67 68 69 70 71 71 72 73 73 73 74 74 74 75 75 77 78 80 80 80 79 78 75 73 71 69 67 65 63 61 60 58 57 55 53 52 51 49 48 47 47 46 45 45 45 45 45 44 42 40 39 38 38 38 37 35 33 31 30 31 31 32 32 32 34 36 38 39 40 40 41 41 41 41 40 39
58 59 60 62 63 64 66 67 68 69 70 71 72 73 73 74 74 75 75 75 76 76 77 78 79 80 81 81 80 78 75 72 70 67 65 63 62 60 59 58 56 54 52 51 50 49 48 47 46 45 45 44 44 44 44 44 42 40 38 37 37 37 36 35 33 31 29 29 29 30 30 31 32 34 35 36 37 38 38 39 39 39 39 37 34
60 61 63 64 66 67 69 70 71 72 72 73 74 74 75 76 76 77 77 78 78 79 79 80 80 80 79 78 76 74 71 68 66 64 62 61 59 58 56 55 54 52 50 49 48 48 46 45 44 44 44 43 43 43 43 42 40 38 36 36 36 35 34 32 31 29 28 28 28 28 29 31 32 33 34 34 34 35 36 36 37 37 35 32 28
63 64 66 67 68 70 71 72 73 74 75 75 76 77 78 78 79 79 80 80 80 80 80 79 78 77 76 74 72 70 67 65 63 61 59 57 56 55 54 53 51 50 48 47 46 46 45 43 42 42 43 43 43 42 42 40 38 36 35 34 35 34 32 30 29 27 26 26 26 27 29 30 31 31 31 32 32 33 33 33 34 33 30 25 20
66 68 69 71 72 72 73 74 75 76 77 78 79 79 80 81 81 82 82 81 81 80 78 77 75 73 71 70 68 66 64 62 60 58 56 54 53 52 51 50 49 47 46 46 45 44 43 42 41 41 41 42 42 41 40 38 36 34 34 33 32 31 30 28 27 26 25 24 25 26 28 29 29 29 29 30 30 30 30 30 30 27 23 19 16
70 71 72 73 74 75 76 77 78 79 80 81 82 82 83 83 83 82 81 80 78 77 75 73 71 69 67 66 64 62 60 58 56 54 53 51 51 50 49 47 46 45 44 44 43 42 41 40 40 40 40 41 40 39 38 36 34 33 33 32 30 28 27 26 25 24 23 23 23 25 27 27 27 26 27 27 28 27 27 26 25 22 19 16 16
73 74 75 76 77 78 79 80 81 82 83 83 84 83 83 82 81 79 77 76 74 72 70 68 67 65 63 61 59 57 55 54 52 51 50 49 48 47 46 44 44 43 43 42 41 40 39 39 39 39 39 39 38 37 36 34 33 32 31 29 27 25 25 24 23 22 22 21 22 24 24 24 24 24 25 25 25 25 24 23 21 19 17 16 16
76 77 78 79 80 81 82 83 84 84 83 83 82 80 79 77 76 74 72 71 69 67 65 63 61 59 57 56 54 53 51 50 49 48 47 46 45 44 43 42 42 41 40 40 39 38 38 38 38 38 38 37 36 35 34 33 32 31 29 26 24 23 22 21 21 20 20 20 21 21 21 21 21 22 22 22 21 21 20 19 18 16 15 14 13
78 79 81 82 83 84 84 83 82 81 79 78 77 75 74 72 70 68 67 65 63 61 60 58 56 54 52 51 50 49 48 47 46 45 44 43 42 41 40 40 39 39 38 38 37 37 37 37 37 37 36 35 34 33 33 32 31 28 25 23 22 21 20 19 19 18 18 19 19 19 19 19 19 19 19 19 18 17 16 15 14 13 12 11 10
82 83 83 83 83 82 80 79 77 76 74 72 71 69 67 66 64 62 61 59 57 56 54 53 51 50 48 47 46 45 45 44 43 43 42 41 40 39 38 38 37 37 36 36 36 36 35 36 35 35 34 33 33 32 32 31 28 24 21 20 20 19 18 17 17 16 17 17 17 17 16 16 17 17 16 16 15 14 13 12 11 10 10 9 9
83 82 81 79 78 76 75 73 71 69 67 65 64 62 60 59 58 57 55 54 52 51 49 48 47 46 45 44 43 43 42 41 41 40 39 38 37 37 36 36 36 35 35 35 35 34 34 34 33 33 32 32 32 31 30 27 24 21 19 19 18 17 16 16 15 15 15 15 15 15 15 15 15 15 14 13 12 12 11 9 8 8 8 8 8
Wind_Direction
273 273 274 275 276 276 277 278 279 279 280 280 280 281 281 281 281 281 281 281 281 281 281 282 281 281 281 281 281 281 281 281 281 281 281 281 281 280 280 280 280 279 279 279 279 278 278 278 278 277 277 276 276 275 275 274 273 273 272 271 270 270 268 267 266 264 263 263 263 262 262 262 261 262 262 261 261 262 262 262 263 263 263 264 264
274 275 276 276 277 278 279 279 280 281 281 281 282 282 282 282 282 282 282 282 282 282 282 282 282 282 282 282 282 282 282 281 281 281 281 281 281 281 281 281 280 280 280 279 279 279 278 278 278 277 277 277 276 276 275 275 274 273 273 272 272 271 270 269 268 266 264 264 264 263 263 263 262 261 262 262 261 261 261 261 262 262 262 262 262
275 276 277 278 279 280 280 281 281 282 282 282 282 283 283 283 283 283 283 283 283 283 282 282 282 282 282 282 282 282 282 282 282 282 282 282 282 282 282 281 281 281 280 280 280 279 279 279 278 278 277 277 277 276 276 275 275 274 274 273 272 272 271 271 270 269 267 265 265 264 263 263 263 262 262 262 261 261 261 261 261 261 261 261 261
277 278 279 280 281 281 282 282 282 282 283 283 283 283 283 283 283 283 283 283 283 283 283 283 283 283 283 283 283 283 283 283 283 283 283 283 283 283 283 283 282 282 282 281 281 281 280 280 279 279 278 278 277 277 276 276 275 274 274 273 273 272 272 272 271 270 269 267 266 266 265 264 263 263 263 263 262 261 261 261 260 260 260 261 260
279 280 280 281 281 282 282 282 283 283 283 283 283 283 283 283 283 283 283 283 283 283 283 284 284 284 284 284 284 284 284 284 284 284 284 284 284 284 284 284 284 284 283 283 283 282 282 281 281 280 279 279 278 278 277 276 276 275 275 274 273 273 272 272 272 271 270 269 267 267 266 265 264 264 263 263 262 262 262 261 261 260 260 260 260
281 281 281 282 282 282 283 283 283 283 283 283 283 283 283 283 283 283 283 284 284 284 284 285 285 285 285 285 285 285 285 285 285 285 285 286 286 286 286 286 286 285 285 285 285 284 283 283 282 282 281 280 280 279 278 278 277 276 276 275 274 274 273 273 272 271 271 270 269 268 267 267 266 265 264 263 263 262 261 261 261 261 260 259 259
282 282 282 283 283 283 283 283 283 283 283 283 283 283 283 283 284 284 284 285 285 285 285 285 285 286 286 286 286 286 286 286 286 286 287 287 287 287 287 287 287 287 287 286 286 286 285 285 284 284 283 282 281 281 280 279 279 278 277 277 276 275 274 274 273 272 271 271 270 269 268 267 267 266 265 264 264 263 262 261 260 260 261 260 259
282 283 283 283 283 283 283 283 283 283 283 283 283 284 284 284 285 285 285 285 286 286 286 286 286 286 287 287 287 287 287 287 288 288 288 288 288 288 288 288 288 288 288 288 288 288 287 287 286 286 285 284 283 283 282 281 280 280 279 278 277 277 276 275 274 273 273 272 271 270 269 268 267 267 266 265 264 264 263 262 261 260 260 260 260
283 283 283 283 283 283 283 283 283 283 284 284 284 284 285 285 285 285 285 286 286 286 286 287 287 287 287 288 288 288 288 288 289 289 289 289 289 290 290 290 290 290 290 290 290 290 289 289 288 288 287 286 286 285 284 283 282 281 280 279 278 278 277 276 275 274 273 273 272 270 269 269 268 267 266 266 265 264 263 263 263 261 260 260 259
283 283 283 282 282 282 283 283 283 284 284 284 284 285 285 285 285 285 286 286 286 286 287 287 288 288 288 288 289 289 289 290 290 290 290 290 290 291 291 291 292 292 292 292 292 292 291 291 290 290 289 289 288 287 286 285 284 283 282 281 280 278 277 276 276 275 274 273 272 271 270 269 269 268 267 266 266 265 264 263 263 262 261 261 260
282 282 282 282 282 283 283 284 284 284 284 284 284 284 285 285 285 285 286 286 286 287 287 288 288 288 289 289 289 290 290 290 291 291 291 292 292 292 293 293 294 294 294 294 294 293 293 293 293 292 292 292 291 290 289 288 288 286 285 284 283 281 280 278 277 276 274 273 272 271 271 270 269 268 268 267 266 266 265 264 264 263 262 261 260
282 282 282 282 283 283 284 284 284 284 284 284 284 284 285 285 285 286 286 286 287 287 288 288 289 289 289 289 290 290 291 291 291 292 293 293 293 294 294 295 295 296 296 296 295 295 295 295 295 295 295 295 294 293 292 291 290 289 288 287 286 285 283 282 280 278 276 275 273 272 272 270 269 268 268 267 266 266 265 264 264 263 263 262 261
281 282 282 283 283 284 284 284 284 284 284 284 284 284 285 285 285 286 286 287 287 288 288 288 289 289 289 290 290 291 291 292 292 293 294 294 295 296 296 297 297 298 298 298 298 298 297 297 298 298 298 298 297 296 295 294 293 291 290 289 288 287 286 285 283 282 280 278 276 275 274 272 271 269 268 268 267 266 265 264 264 263 263 262 262
282 282 283 283 283 284 284 284 284 284 284 284 284 284 285 285 285 286 286 287 287 288 288 288 288 289 289 290 291 291 292 292 293 294 294 295 296 297 298 299 299 300 300 300 300 300 300 300 300 300 300 300 300 298 297 296 294 293 292 291 290 289 288 287 285 284 283 282 280 278 276 275 273 272 270 269 268 267 266 264 263 263 263 262 262
282 282 283 283 283 283 283 283 283 284 284 284 284 284 285 285 285 286 286 287 288 288 288 288 288 289 289 290 291 291 292 293 294 294 295 296 297 298 299 300 301 301 302 302 302 302 302 302 302 302 303 302 302 301 299 298 296 294 293 292 291 290 289 288 286 286 285 284 283 281 279 278 277 275 273 272 271 270 268 266 265 264 263 262 261
282 283 283 283 283 283 283 283 283 283 284 284 284 284 285 285 286 286 287 287 288 288 288 288 289 289 290 290 291 292 293 294 294 295 296 297 298 299 300 301 302 303 303 303 304 304 304 304 304 304 305 304 304 303 301 300 298 296 295 294 293 292 290 289 288 287 286 285 284 282 281 280 279 277 276 275 274 273 271 269 268 267 265 263 261
282 282 282 283 283 283 283 282 283 284 284 284 284 285 285 286 286 287 287 287 287 288 288 289 289 289 290 291 291 292 293 294 295 295 296 297 298 299 300 302 303 303 304 304 305 305 305 305 306 306 306 306 305 305 303 302 300 299 297 296 295 293 291 290 289 288 287 286 284 283 282 281 280 279 278 278 277 276 274 272 271 269 268 266 264
281 282 283 283 282 282 282 282 283 284 284 284 285 285 285 286 286 287 287 287 287 288 288 289 289 290 290 291 292 293 294 294 295 296 296 297 298 300 301 302 303 304 304 305 305 305 306 306 307 307 308 307 307 306 304 303 302 300 299 298 296 294 292 291 290 289 288 286 285 284 283 282 281 281 280 279 279 278 277 276 274 272 271 269 267
282 283 283 282 282 282 282 283 283 284 285 285 285 286 286 286 287 287 287 288 288 289 289 289 289 290 291 291 292 293 294 294 295 296 297 298 299 300 301 302 303 304 304 305 305 305 306 306 307 308 309 309 308 307 305 304 303 302 301 299 297 294 293 292 291 289 287 286 284 284 283 283 282 282 281 280 280 280 279 279 277 276 274 273 271
282 282 282 281 282 282 283 283 284 285 285 285 286 286 286 286 287 287 288 288 289 289 289 289 290 291 291 292 293 293 294 295 296 296 297 298 299 300 301 302 303 303 304 305 305 305 306 307 308 309 309 309 308 307 305 304 303 303 301 299 297 296 294 293 292 290 288 286 284 283 283 282 282 281 281 280 280 280 280 280 279 278 277 276 275
282 282 281 281 282 283 283 284 285 285 285 286 286 286 286 287 287 288 288 289 289 289 289 289 290 291 292 293 293 294 294 295 296 297 298 299 299 300 302 302 303 303 304 304 305 305 306 307 308 309 310 309 308 306 305 304 303 302 301 299 298 297 296 295 293 291 289 287 285 284 283 282 281 281 280 280 279 279 279 279 279 279 279 278 277
281 281 281 281 282 283 284 284 285 285 285 285 285 285 286 287 288 288 288 289 288 288 289 290 291 292 293 293 294 294 295 296 296 297 298 299 300 301 302 302 303 303 304 304 305 305 306 307 308 309 309 308 306 305 304 303 302 301 301 300 299 299 298 297 295 292 290 288 286 285 284 283 282 281 280 280 279 279 279 279 279 279 279 279 278
281 281 281 281 282 283 284 285 285 285 285 285 285 286 286 287 288 288 288 288 288 288 289 291 292 292 293 294 294 294 295 296 296 297 298 299 300 301 302 302 303 303 304 304 304 305 306 307 309 309 309 307 305 304 303 301 301 300 300 300 299 299 299 297 295 293 291 289 288 287 286 284 283 282 281 280 279 279 279 278 279 279 279 279 279
281 280 281 282 283 284 285 285 285 285 285 285 286 286 287 288 288 288 288 288 288 289 290 291 292 293 293 294 294 295 295 296 297 297 298 299 300 301 302 302 303 303 304 304 304 305 307 308 309 309 308 306 305 303 301 300 300 300 300 299 299 299 299 297 295 293 292 290 289 288 287 285 284 283 281 280 279 279 278 278 278 278 278 278 279
281 281 282 283 284 285 285 285 285 285 285 286 286 287 287 288 288 288 288 289 289 290 291 292 292 293 294 294 294 295 296 297 297 297 298 299 300 301 302 302 302 303 303 304 305 306 308 309 309 308 307 305 304 302 300 300 300 300 300 300 300 301 300 298 296 294 293 291 290 289 288 286 285 284 282 281 280 279 278 278 278 278 278 278 278
281 281 283 284 284 285 285 285 285 285 286 287 287 287 288 288 288 288 288 289 290 291 292 292 293 293 294 294 295 295 296 297 297 298 299 299 300 301 301 302 302 303 303 304 305 307 309 310 309 307 306 305 303 301 300 300 300 300 301 301 302 302 301 300 297 295 294 293 292 290 289 287 286 285 283 282 282 281 280 279 278 278 278 278 278
282 282 283 284 284 284 284 285 285 286 287 287 288 287 287 287 288 289 289 290 291 292 292 292 293 293 294 294 295 296 297 297 298 298 299 300 300 301 301 302 302 302 303 304 306 308 309 309 307 306 305 303 302 301 300 300 300 300 300 301 302 302 302 300 298 297 295 294 293 292 290 288 286 285 284 283 283 282 281 281 280 279 278 278 278
282 283 283 284 284 284 285 285 286 287 287 287 287 287 287 288 288 289 290 291 292 292 292 292 293 294 294 295 295 296 297 297 298 299 299 300 301 301 301 302 302 303 304 305 306 309 309 307 306 305 303 302 301 300 299 299 300 300 300 301 302 303 302 300 299 298 297 296 294 292 291 289 287 286 285 284 284 283 283 282 282 281 280 279 278
283 283 283 284 284 285 285 286 287 287 287 287 287 287 287 288 289 291 291 291 291 291 292 293 293 294 295 296 296 297 298 298 298 299 299 300 300 301 301 301 302 303 304 305 307 308 308 306 304 303 301 300 299 299 298 298 299 299 300 301 302 303 302 300 300 299 298 297 296 294 291 289 288 287 286 285 285 285 285 284 284 283 282 281 280
284 284 284 285 285 286 287 287 287 287 287 287 287 287 288 290 291 291 292 291 292 292 293 293 294 295 296 296 297 297 298 298 299 299 300 300 300 300 301 301 302 303 304 305 307 308 306 305 304 302 300 300 299 298 298 298 298 299 300 301 302 302 301 300 300 299 299 297 296 294 292 290 289 288 287 287 286 286 287 287 286 286 285 284 283
284 285 285 286 287 287 287 287 287 287 287 287 288 289 290 291 292 292 291 292 292 293 293 294 294 295 296 297 297 298 298 298 299 299 299 300 300 300 301 302 303 304 305 306 307 306 305 304 303 301 300 300 299 298 298 298 298 298 300 301 302 302 301 300 300 300 299 297 296 295 293 291 290 289 288 288 288 288 289 289 289 289 288 288 286
286 287 287 288 288 287 287 287 286 287 287 288 289 290 291 291 292 292 292 292 293 293 293 294 295 296 296 297 297 298 298 299 299 299 299 299 300 300 301 303 304 305 305 306 306 305 303 302 301 300 300 299 299 298 298 298 298 299 300 301 302 301 300 300 300 299 298 297 296 295 294 292 291 290 290 290 290 290 291 291 291 291 290 290 289
289 289 288 288 287 287 287 287 287 288 289 290 291 291 291 291 292 292 292 293 293 294 294 295 296 296 297 297 297 298 298 298 298 299 299 299 300 301 302 303 304 304 304 305 304 303 302 301 301 300 300 299 298 298 297 298 298 299 300 302 301 300 300 300 300 299 298 297 296 295 294 293 292 291 292 292 293 293 293 292 292 292 291 291 291
289 288 287 287 287 287 287 288 288 289 290 291 291 291 291 291 292 292 292 293 293 294 295 296 296 296 297 297 297 298 298 298 298 298 299 299 299 300 302 303 303 303 303 303 302 301 301 300 300 300 299 298 298 297 297 297 298 299 301 302 301 300 300 300 300 299 298 297 296 296 294 293 293 292 293 294 294 294 294 294 293 293 293 293 293
288 288 288 288 288 288 288 289 290 291 291 291 291 291 291 291 292 292 293 293 294 295 295 296 296 297 297 297 297 297 298 298 298 299 299 299 300 301 302 303 302 302 302 301 301 300 300 299 299 298 298 297 297 296 297 297 298 300 301 302 301 300 300 300 300 299 299 297 296 295 294 294 294 294 295 296 295 295 295 295 294 294 294 294 295
289 289 288 289 289 289 290 291 291 291 291 291 291 291 291 292 292 293 294 294 295 295 295 296 296 297 297 296 296 297 298 298 298 299 299 299 300 301 302 302 301 300 300 299 299 299 299 299 298 298 297 297 296 296 296 297 298 300 301 301 299 299 299 299 299 299 299 298 296 295 294 294 295 296 297 297 297 296 295 295 295 295 296 296 296
290 290 290 290 291 291 291 291 291 291 291 291 291 292 292 293 293 294 294 295 295 295 295 296 296 296 296 295 296 297 297 298 298 299 299 299 300 300 300 300 299 299 298 298 297 298 298 297 297 296 296 295 295 295 295 296 298 300 300 300 298 298 298 298 298 299 298 297 296 295 295 296 297 298 298 297 296 296 296 297 297 298 298 298 298
291 291 291 291 292 292 292 292 291 291 292 292 292 293 293 294 294 294 295 295 295 295 295 295 295 295 295 295 295 296 297 298 298 299 299 299 299 299 299 298 298 297 296 296 296 296 296 296 295 295 295 294 294 294 295 296 298 300 300 299 297 297 298 298 298 298 298 297 295 295 296 297 297 298 297 297 297 297 298 300 300 301 301 302 302
293 293 292 292 292 292 292 292 293 293 293 293 293 294 294 295 295 295 295 295 295 295 295 295 295 295 294 295 296 297 297 298 298 298 298 297 297 297 297 296 296 295 295 295 295 295 295 295 294 294 294 294 294 294 295 297 299 299 299 298 297 297 298 298 298 298 298 296 295 295 296 297 297 297 297 298 299 300 302 303 303 304 305 306 306
294 293 293 293 293 293 293 293 293 294 294 294 295 295 295 295 295 295 295 295 295 294 294 294 294 294 294 295 296 297 297 298 297 297 296 296 295 295 295 294 294 294 294 294 294 294 294 294 294 293 293 293 293 294 295 297 299 299 298 297 297 297 298 298 298 298 297 295 295 296 296 296 297 297 299 301 303 304 305 306 307 309 309 309 309
294 294 294 294 294 294 294 294 295 295 295 295 296 296 295 295 295 295 295 295 294 294 294 294 294 294 295 295 296 296 297 297 296 295 295 294 294 293 293 292 292 292 293 293 293 293 293 294 293 293 293 293 293 295 296 298 299 299 298 296 296 297 298 298 298 298 296 295 295 296 296 296 298 300 303 305 307 308 309 310 311 312 312 311 310
295 295 295 295 295 295 295 295 295 296 296 296 296 296 296 295 295 295 295 294 294 294 294 294 294 294 295 295 296 296 296 295 295 294 294 293 292 292 291 291 291 291 291 292 292 292 292 293 293 293 293 293 293 295 297 298 298 298 296 296 296 297 297 297 297 296 295 294 295 296 296 298 301 304 307 308 309 310 311 312 313 313 313 312 311
296 295 295 296 296 296 296 296 296 296 296 296 296 296 296 295 295 294 294 294 293 293 294 294 294 294 294 295 295 295 294 294 293 293 292 291 291 290 290 289 289 290 290 291 291 291 292 292 292 292 292 293 294 296 297 298 297 296 295 295 296 296 296 296 296 294 294 294 296 297 299 302 306 308 310 311 312 312 313 315 316 316 315 315 314
296 296 296 296 296 296 296 296 296 296 296 296 296 295 295 294 294 294 293 293 294 294 294 294 294 294 294 293 293 293 293 293 292 292 291 290 289 288 288 288 288 289 289 289 290 290 291 291 291 292 292 293 295 296 297 296 296 295 294 294 295 294 294 294 293 292 293 295 297 300 303 306 309 311 312 313 314 315 317 319 320 320 320 319 320
297 297 297 297 297 297 297 296 296 296 296 295 295 294 294 294 294 294 294 294 294 294 294 293 293 293 293 292 292 292 292 292 291 290 289 288 287 286 286 286 287 288 288 288 288 289 290 290 290 291 292 293 295 296 295 295 294 293 293 293 293 292 292 292 291 291 292 295 299 303 306 309 311 313 315 316 317 318 320 322 324 324 325 325 325
298 298 298 297 297 297 296 296 296 295 295 295 294 294 294 294 294 294 294 294 293 293 293 293 292 292 292 292 291 291 291 290 290 289 288 286 285 285 285 286 286 286 287 287 287 288 289 289 290 291 292 294 295 295 294 294 293 293 293 292 290 289 290 289 289 290 292 296 301 305 308 311 314 316 317 319 320 321 322 324 326 328 328 328 325
299 298 298 297 297 297 296 296 295 295 295 294 294 294 294 294 294 293 293 293 293 292 292 292 292 291 291 291 291 290 290 289 288 287 286 285 285 285 285 285 285 285 285 286 287 288 288 289 290 291 293 294 294 294 293 293 293 293 292 290 287 286 287 286 286 288 292 297 302 306 310 313 316 319 322 323 324 324 324 326 328 330 330 330 330
299 298 298 297 297 297 296 296 296 295 295 294 294 294 294 293 293 293 293 292 292 292 292 291 291 291 290 290 289 289 288 288 287 286 285 285 284 284 284 284 284 284 285 285 286 287 288 289 291 292 293 293 293 293 292 293 293 293 290 286 283 283 283 282 283 287 291 297 303 308 312 315 320 324 326 327 328 328 330 331 332 334 337 340 342
299 299 298 298 298 297 297 296 296 295 295 295 294 294 294 293 293 293 292 292 292 292 291 291 291 290 290 289 288 288 287 286 286 285 285 284 284 284 284 283 283 284 284 285 286 287 288 290 291 292 292 293 292 293 293 294 293 290 285 280 279 279 279 279 281 285 291 298 305 310 314 318 323 327 329 330 332 334 336 337 338 342 349 355 357
300 299 299 299 298 298 297 297 296 296 295 295 295 294 294 293 293 293 292 292 292 291 291 291 290 290 289 288 287 287 286 285 285 284 284 283 283 283 283 283 283 284 284 285 286 287 289 290 291 292 292 292 292 293 294 293 290 285 278 275 275 275 275 275 278 284 291 299 306 312 316 321 326 330 332 334 337 340 342 345 351 360 9 15 19
301 300 300 299 299 298 298 297 297 296 296 296 295 295 294 294 294 293 293 293 292 292 291 290 290 289 288 287 286 286 285 284 284 284 283 283 282 282 282 282 283 283 284 285 286 288 289 290 291 291 292 292 293 293 293 290 284 277 272 271 271 270 270 271 275 281 290 298 306 313 318 322 327 331 333 337 341 345 349 357 8 18 27 33 39
Height
5595 5595 5594 5593 5592 5592 5591 5590 5589 5588 5587 5586 5585 5584 5583 5582 5580 5579 5577 5576 5575 5573 5572 5570 5569 5567 5565 5563 5562 5560 5558 5557 5555 5554 5552 5550 5548 5546 5544 5542 5540 5538 5537 5535 5534 5533 5532 5530 5528 5527 5526 5525 5524 5522 5522 5520 5520 5519 5517 5517 5516 5514 5513 5514 5515 5523 5526 5521 5522 5525 5523 5523 5526 5525 5524 5527 5527 5524 5524 5525 5526 5527 5527 5526 5528
5589 5588 5587 5586 5585 5585 5584 5583 5582 5581 5579 5578 5577 5576 5575 5573 5572 5570 5569 5567 5566 5564 5563 5561 5560 5558 5556 5554 5552 5551 5549 5548 5546 5544 5542 5540 5538 5536 5534 5532 5529 5527 5526 5524 5523 5522 5520 5519 5517 5516 5514 5513 5512 5510 5509 5509 5507 5507 5505 5503 5504 5502 5499 5500 5501 5505 5511 5510 5507 5509 5509 5507 5510 5512 5510 5511 5513 5511 5511 5513 5513 5513 5514 5514 5516
5581 5581 5580 5579 5578 5577 5576 5575 5574 5573 5572 5570 5569 5568 5566 5565 5563 5561 5560 5558 5557 5555 5553 5552 5550 5548 5547 5545 5543 5541 5540 5538 5536 5535 5533 5531 5528 5526 5523 5521 5519 5517 5515 5513 5512 5510 5509 5508 5505 5504 5503 5501 5500 5497 5496 5496 5495 5494 5493 5491 5490 5490 5487 5486 5487 5488 5493 5497 5495 5493 5494 5493 5494 5497 5495 5494 5496 5497 5497 5499 5500 5499 5500 5501 5503
5574 5574 5573 5571 5571 5570 5568 5567 5566 5565 5564 5562 5561 5559 5558 5556 5554 5552 5551 5549 5548 5546 5544 5543 5541 5539 5537 5535 5534 5532 5530 5529 5527 5525 5523 5521 5519 5516 5513 5511 5508 5506 5504 5502 5501 5499 5498 5496 5493 5492 5491 5489 5488 5485 5483 5483 5482 5480 5480 5478 5476 5476 5475 5473 5473 5473 5476 5481 5482 5478 5479 5479 5479 5480 5480 5477 5479 5482 5482 5483 5485 5486 5486 5487 5489
5567 5566 5565 5564 5563 5562 5561 5560 5558 5557 5555 5554 5553 5551 5549 5547 5545 5544 5542 5540 5539 5537 5535 5534 5532 5530 5528 5526 5524 5523 5521 5519 5517 5516 5514 5512 5509 5507 5503 5501 5498 5496 5494 5492 5490 5488 5486 5484 5482 5480 5479 5477 5475 5473 5471 5469 5468 5467 5466 5465 5463 5462 5462 5460 5459 5459 5460 5463 5467 5465 5464 5463 5463 5464 5464 5461 5462 5466 5466 5467 5469 5471 5473 5474 5475
5560 5559 5558 5557 5555 5554 5553 5552 5550 5549 5547 5546 5544 5542 5541 5539 5537 5535 5533 5532 5530 5528 5527 5525 5523 5521 5519 5517 5516 5514 5512 5511 5509 5507 5505 5503 5500 5498 5494 5491 5488 5486 5484 5482 5480 5477 5475 5473 5471 5468 5466 5465 5463 5461 5459 5457 5455 5455 5453 5451 5450 5449 5448 5447 5445 5445 5445 5446 5449 5451 5449 5448 5446 5447 5447 5445 5445 5449 5450 5450 5454 5455 5456 5459 5462
5552 5551 5550 5549 5548 5546 5545 5543 5542 5540 5539 5538 5536 5534 5533 5530 5529 5527 5525 5524 5522 5520 5518 5516 5514 5512 5510 5509 5507 5505 5503 5502 5500 5498 5496 5494 5492 5489 5485 5482 5479 5476 5474 5472 5469 5467 5464 5462 5459 5457 5454 5452 5450 5448 5447 5445 5443 5442 5440 5438 5437 5435 5434 5433 5431 5430 5430 5431 5433 5434 5433 5432 5430 5430 5430 5429 5430 5432 5432 5432 5438 5442 5440 5442 5446
5545 5544 5542 5541 5540 5538 5537 5535 5534 5532 5531 5529 5528 5526 5524 5522 5520 5519 5517 5515 5514 5512 5510 5508 5506 5504 5502 5500 5498 5496 5495 5493 5491 5489 5487 5486 5483 5480 5477 5473 5470 5468 5465 5462 5459 5456 5454 5451 5448 5446 5443 5440 5438 5436 5434 5432 5431 5430 5428 5425 5424 5422 5421 5419 5417 5416 5415 5416 5417 5416 5416 5416 5414 5412 5412 5413 5414 5416 5415 5413 5418 5425 5425 5425 5430
5537 5536 5534 5533 5532 5530 5529 5527 5526 5524 5523 5521 5520 5518 5516 5514 5512 5511 5509 5507 5506 5504 5502 5500 5498 5496 5494 5492 5490 5488 5486 5484 5482 5481 5478 5477 5475 5472 5468 5464 5461 5459 5456 5453 5450 5446 5444 5441 5438 5435 5432 5429 5427 5424 5422 5419 5418 5417 5415 5413 5411 5409 5407 5405 5403 5402 5400 5400 5400 5399 5399 5400 5399 5395 5396 5397 5396 5398 5400 5397 5398 5404 5407 5409 5415
5529 5528 5527 5525 5524 5523 5521 5520 5518 5517 5515 5513 5512 5510 5508 5506 5505 5503 5501 5500 5498 5496 5494 5492 5490 5488 5485 5483 5481 5479 5478 5476 5473 5471 5469 5468 5466 5464 5460 5456 5452 5450 5447 5444 5441 5437 5434 5431 5428 5424 5421 5419 5416 5413 5410 5407 5405 5404 5402 5400 5398 5396 5394 5392 5390 5387 5385 5385 5384 5383 5383 5384 5383 5380 5379 5380 5378 5379 5383 5382 5381 5386 5389 5390 5397
5522 5520 5519 5518 5516 5515 5514 5512 5510 5509 5507 5506 5504 5502 5501 5499 5497 5495 5494 5492 5490 5489 5487 5484 5482 5480 5477 5475 5473 5471 5469 5467 5465 5462 5460 5458 5457 5455 5451 5447 5444 5441 5438 5435 5432 5429 5425 5422 5418 5415 5411 5408 5405 5402 5399 5396 5394 5391 5389 5387 5384 5381 5379 5377 5375 5372 5370 5369 5369 5368 5368 5368 5368 5365 5362 5361 5361 5361 5365 5366 5365 5368 5371 5371 5376
5514 5513 5511 5510 5509 5507 5506 5504 5503 5501 5499 5498 5496 5495 5493 5492 5490 5488 5486 5484 5483 5481 5479 5477 5474 5472 5470 5467 5465 5462 5460 5459 5456 5454 5452 5449 5447 5446 5442 5438 5436 5432 5429 5426 5423 5419 5416 5412 5409 5405 5401 5398 5395 5391 5388 5386 5383 5380 5377 5375 5371 5368 5364 5361 5358 5356 5353 5353 5354 5355 5353 5351 5351 5350 5345 5342 5343 5345 5347 5349 5349 5349 5352 5354 5356
5507 5505 5504 5502 5501 5499 5498 5496 5495 5494 5492 5490 5489 5487 5486 5484 5482 5481 5479 5477 5475 5473 5471 5469 5467 5464 5462 5459 5456 5454 5452 5450 5448 5445 5443 5441 5438 5436 5433 5429 5426 5423 5419 5416 5413 5410 5406 5403 5399 5395 5391 5387 5384 5380 5377 5375 5372 5369 5366 5363 5360 5357 5352 5347 5343 5339 5337 5337 5339 5340 5337 5333 5333 5334 5330 5325 5325 5328 5329 5331 5333 5332 5334 5337 5338
5499 5498 5496 5495 5493 5492 5490 5489 5487 5486 5484 5483 5481 5480 5478 5477 5475 5473 5471 5469 5468 5466 5463 5461 5459 5457 5454 5451 5448 5446 5443 5442 5439 5437 5434 5432 5430 5427 5424 5420 5417 5414 5410 5407 5403 5400 5396 5393 5389 5385 5381 5377 5372 5368 5366 5364 5361 5358 5356 5353 5350 5345 5340 5335 5330 5326 5324 5323 5322 5322 5320 5316 5315 5317 5315 5310 5307 5309 5311 5313 5316 5317 5317 5319 5323
5492 5490 5489 5487 5486 5484 5483 5481 5480 5478 5477 5475 5474 5472 5471 5469 5468 5466 5464 5462 5460 5458 5456 5453 5451 5449 5447 5444 5441 5437 5435 5433 5431 5428 5426 5423 5421 5419 5415 5412 5408 5405 5401 5397 5394 5390 5386 5382 5379 5375 5371 5366 5361 5357 5354 5351 5349 5347 5345 5343 5339 5335 5329 5323 5319 5316 5314 5311 5308 5306 5304 5302 5300 5299 5299 5295 5291 5291 5293 5295 5298 5299 5298 5303 5308
5484 5483 5481 5480 5478 5477 5475 5474 5472 5471 5470 5468 5466 5465 5463 5462 5460 5458 5456 5454 5452 5450 5448 5445 5443 5441 5438 5436 5433 5429 5426 5424 5422 5420 5417 5415 5413 5410 5407 5403 5399 5396 5392 5388 5385 5380 5376 5372 5368 5364 5360 5356 5351 5346 5342 5339 5336 5335 5334 5331 5328 5323 5317 5311 5308 5306 5303 5300 5296 5292 5291 5289 5287 5284 5283 5280 5276 5275 5275 5279 5282 5279 5279 5286 5292
5476 5475 5474 5473 5471 5469 5468 5466 5465 5463 5462 5461 5459 5457 5456 5454 5452 5450 5448 5446 5444 5442 5440 5438 5435 5433 5430 5428 5426 5422 5418 5415 5413 5411 5408 5406 5404 5402 5399 5395 5391 5387 5383 5380 5376 5371 5367 5362 5358 5354 5350 5345 5340 5336 5330 5326 5324 5322 5321 5320 5316 5311 5305 5301 5298 5296 5292 5288 5284 5281 5279 5277 5274 5272 5270 5267 5263 5260 5259 5264 5266 5262 5262 5269 5273
5469 5468 5467 5465 5464 5462 5460 5459 5457 5456 5455 5453 5451 5450 5448 5446 5445 5443 5440 5438 5436 5434 5432 5430 5427 5425 5423 5420 5417 5415 5411 5407 5404 5402 5400 5397 5395 5393 5390 5387 5383 5379 5375 5371 5367 5363 5358 5353 5348 5344 5340 5335 5330 5325 5319 5315 5312 5310 5309 5307 5303 5298 5294 5290 5289 5286 5282 5277 5273 5270 5268 5265 5263 5261 5259 5256 5252 5249 5246 5249 5250 5247 5248 5252 5254
5462 5461 5460 5458 5456 5454 5453 5452 5450 5449 5447 5446 5444 5442 5440 5438 5437 5435 5433 5431 5429 5426 5424 5422 5419 5417 5414 5412 5409 5406 5403 5399 5396 5393 5391 5388 5386 5384 5381 5378 5374 5370 5367 5363 5359 5354 5350 5345 5340 5334 5329 5325 5320 5314 5309 5303 5300 5298 5297 5294 5290 5286 5282 5279 5278 5275 5272 5268 5265 5261 5258 5255 5252 5250 5248 5245 5243 5239 5237 5236 5236 5234 5234 5236 5238
5455 5454 5452 5451 5449 5447 5445 5444 5443 5442 5440 5438 5436 5434 5432 5431 5429 5427 5425 5423 5421 5418 5416 5414 5412 5409 5406 5404 5401 5398 5395 5392 5387 5384 5382 5379 5376 5374 5372 5369 5365 5361 5358 5354 5350 5346 5341 5337 5332 5326 5320 5315 5309 5304 5299 5293 5288 5286 5284 5280 5276 5273 5271 5269 5266 5263 5260 5258 5256 5253 5250 5247 5243 5241 5239 5236 5233 5231 5228 5226 5225 5223 5222 5223 5225
5448 5447 5445 5443 5441 5439 5438 5436 5435 5434 5432 5431 5429 5426 5424 5423 5421 5419 5417 5415 5413 5410 5408 5406 5404 5401 5398 5395 5392 5389 5387 5384 5379 5375 5372 5370 5367 5364 5362 5359 5355 5352 5348 5345 5341 5337 5332 5328 5324 5318 5312 5306 5300 5294 5289 5284 5279 5276 5272 5268 5264 5261 5259 5257 5255 5251 5249 5247 5245 5243 5240 5238 5235 5232 5229 5227 5225 5222 5220 5218 5216 5214 5212 5211 5212
5441 5439 5438 5436 5434 5432 5431 5429 5428 5427 5425 5423 5421 5419 5417 5415 5414 5412 5409 5407 5405 5402 5400 5398 5396 5393 5389 5386 5384 5381 5378 5375 5371 5367 5363 5361 5358 5355 5352 5349 5345 5341 5338 5335 5331 5327 5323 5319 5315 5309 5303 5297 5291 5285 5281 5276 5271 5266 5262 5258 5254 5250 5247 5245 5243 5240 5238 5236 5234 5232 5230 5227 5225 5223 5220 5218 5216 5214 5212 5210 5208 5206 5204 5202 5201
5433 5432 5430 5428 5427 5425 5424 5422 5421 5419 5417 5415 5413 5412 5410 5408 5406 5404 5401 5399 5396 5394 5392 5390 5388 5385 5382 5378 5375 5372 5369 5366 5362 5359 5355 5351 5348 5346 5343 5339 5335 5331 5328 5325 5321 5317 5314 5310 5305 5300 5293 5287 5282 5277 5272 5267 5262 5258 5254 5249 5245 5241 5238 5235 5232 5230 5228 5226 5224 5222 5220 5217 5215 5214 5211 5209 5207 5205 5203 5202 5200 5198 5197 5195 5193
5426 5424 5423 5421 5420 5418 5416 5415 5413 5411 5409 5408 5406 5404 5402 5400 5398 5395 5392 5390 5388 5386 5384 5382 5380 5377 5374 5370 5366 5363 5361 5357 5354 5350 5346 5343 5339 5337 5333 5329 5325 5321 5317 5314 5310 5307 5304 5300 5295 5289 5282 5277 5273 5268 5263 5258 5253 5249 5245 5241 5237 5233 5229 5226 5223 5221 5219 5216 5214 5212 5210 5207 5205 5203 5202 5200 5198 5197 5195 5193 5192 5190 5188 5188 5187
5418 5416 5415 5414 5412 5411 5409 5407 5405 5404 5402 5400 5398 5396 5394 5392 5390 5387 5384 5382 5380 5378 5376 5373 5371 5369 5366 5362 5359 5355 5352 5348 5344 5341 5338 5334 5331 5327 5324 5320 5316 5311 5307 5303 5300 5297 5294 5290 5284 5277 5272 5267 5263 5259 5254 5249 5244 5240 5236 5232 5228 5224 5220 5217 5215 5212 5210 5208 5205 5203 5200 5197 5195 5193 5192 5191 5189 5188 5186 5185 5184 5182 5180 5180 5181
5411 5409 5408 5407 5405 5403 5402 5400 5398 5396 5394 5393 5391 5388 5386 5384 5381 5378 5376 5374 5372 5370 5367 5365 5362 5360 5357 5354 5350 5347 5343 5339 5335 5332 5328 5325 5322 5318 5315 5311 5306 5302 5297 5293 5289 5287 5284 5279 5272 5266 5261 5257 5253 5248 5244 5240 5236 5232 5227 5223 5219 5215 5211 5208 5206 5204 5202 5199 5196 5194 5191 5189 5187 5185 5183 5182 5181 5178 5177 5177 5176 5174 5172 5171 5173
5404 5402 5401 5399 5397 5396 5394 5392 5391 5389 5387 5385 5383 5380 5377 5375 5372 5370 5367 5365 5364 5361 5359 5356 5353 5351 5348 5345 5342 5339 5335 5330 5326 5323 5319 5316 5312 5309 5305 5301 5297 5293 5288 5284 5280 5277 5274 5268 5261 5256 5251 5248 5243 5238 5235 5231 5227 5223 5219 5215 5211 5207 5203 5200 5197 5195 5193 5191 5188 5186 5183 5180 5179 5177 5175 5174 5172 5170 5168 5168 5167 5166 5164 5163 5164
5396 5395 5393 5391 5390 5388 5386 5385 5383 5381 5379 5377 5374 5372 5369 5366 5364 5362 5359 5357 5355 5352 5350 5347 5344 5341 5339 5336 5333 5330 5327 5322 5317 5313 5310 5306 5303 5299 5295 5291 5287 5283 5278 5274 5271 5269 5264 5257 5252 5247 5243 5239 5235 5230 5227 5223 5219 5215 5211 5207 5203 5199 5195 5192 5189 5187 5184 5182 5180 5178 5175 5173 5171 5169 5168 5166 5165 5162 5160 5159 5158 5158 5156 5155 5156
5389 5387 5385 5384 5382 5380 5379 5377 5375 5373 5371 5368 5366 5363 5361 5358 5356 5354 5351 5348 5346 5343 5341 5339 5335 5332 5330 5327 5323 5321 5318 5312 5308 5304 5301 5297 5293 5289 5285 5281 5277 5273 5269 5264 5262 5260 5255 5248 5243 5239 5235 5231 5227 5223 5219 5216 5212 5207 5203 5199 5195 5191 5188 5184 5182 5179 5176 5174 5172 5169 5167 5165 5164 5162 5161 5159 5157 5155 5153 5151 5150 5149 5148 5147 5147
5382 5380 5378 5376 5374 5373 5371 5369 5367 5365 5362 5360 5357 5355 5353 5350 5348 5346 5342 5339 5336 5334 5331 5329 5326 5323 5321 5318 5314 5311 5308 5304 5299 5294 5291 5288 5283 5279 5275 5271 5267 5263 5258 5254 5253 5249 5244 5238 5234 5230 5226 5222 5219 5215 5212 5208 5204 5201 5197 5192 5188 5184 5181 5177 5174 5172 5169 5166 5164 5162 5160 5158 5157 5155 5153 5152 5151 5148 5146 5143 5142 5141 5140 5139 5139
5375 5373 5371 5369 5367 5365 5363 5361 5358 5356 5353 5351 5349 5347 5345 5342 5340 5336 5333 5330 5327 5324 5321 5319 5317 5314 5312 5309 5305 5301 5298 5294 5290 5286 5282 5278 5274 5270 5266 5261 5257 5252 5247 5244 5242 5238 5233 5229 5225 5220 5216 5213 5210 5207 5204 5200 5197 5194 5190 5186 5181 5177 5174 5171 5168 5165 5162 5159 5157 5155 5152 5151 5150 5148 5147 5145 5144 5142 5139 5137 5135 5134 5133 5131 5131
5368 5366 5363 5361 5359 5357 5355 5352 5350 5347 5345 5343 5341 5339 5337 5334 5331 5327 5324 5321 5318 5315 5312 5309 5307 5304 5302 5299 5296 5293 5288 5284 5280 5276 5272 5267 5263 5260 5256 5252 5248 5242 5237 5233 5231 5227 5223 5219 5216 5212 5208 5205 5202 5198 5195 5192 5189 5186 5183 5179 5175 5170 5167 5164 5161 5158 5155 5153 5150 5148 5146 5144 5143 5142 5140 5138 5137 5136 5133 5131 5129 5127 5126 5125 5123
5361 5359 5356 5353 5351 5348 5346 5344 5341 5339 5337 5335 5333 5331 5328 5326 5323 5319 5315 5312 5309 5306 5302 5299 5297 5294 5291 5288 5285 5283 5280 5275 5271 5267 5263 5258 5253 5249 5246 5243 5238 5232 5228 5224 5221 5217 5213 5210 5206 5203 5200 5197 5193 5191 5188 5185 5182 5179 5175 5172 5168 5164 5160 5157 5155 5152 5149 5147 5144 5142 5140 5138 5137 5136 5134 5132 5130 5129 5127 5125 5123 5121 5119 5118 5117
5353 5350 5347 5345 5343 5340 5338 5335 5333 5331 5329 5327 5324 5322 5319 5316 5314 5311 5307 5303 5300 5297 5292 5289 5286 5284 5281 5278 5274 5272 5269 5266 5262 5258 5254 5249 5244 5240 5237 5234 5228 5223 5218 5215 5212 5208 5204 5201 5198 5194 5191 5188 5185 5183 5180 5177 5174 5171 5168 5165 5161 5158 5154 5151 5148 5146 5143 5141 5138 5136 5134 5133 5131 5130 5129 5127 5124 5123 5121 5119 5117 5115 5113 5111 5110
5345 5342 5339 5337 5335 5333 5330 5327 5325 5323 5320 5318 5315 5313 5310 5307 5304 5302 5298 5295 5291 5288 5283 5279 5275 5272 5270 5267 5264 5261 5258 5255 5251 5247 5242 5238 5233 5230 5228 5224 5219 5214 5210 5206 5202 5199 5196 5193 5190 5187 5184 5181 5178 5175 5173 5170 5167 5164 5161 5158 5154 5151 5148 5145 5142 5140 5138 5135 5133 5131 5129 5127 5125 5124 5123 5121 5119 5117 5115 5113 5111 5109 5106 5105 5103
5337 5334 5331 5328 5326 5325 5322 5320 5317 5314 5311 5309 5306 5304 5301 5298 5295 5292 5289 5286 5282 5278 5274 5269 5265 5262 5259 5255 5252 5250 5248 5245 5241 5237 5232 5226 5222 5219 5217 5214 5210 5206 5201 5197 5194 5191 5187 5184 5181 5179 5176 5174 5171 5168 5166 5163 5161 5158 5154 5151 5148 5145 5142 5139 5137 5135 5132 5130 5127 5126 5124 5122 5120 5119 5118 5116 5113 5111 5109 5107 5105 5103 5100 5097 5096
5329 5326 5323 5320 5318 5316 5314 5311 5308 5306 5303 5300 5297 5294 5291 5289 5286 5283 5279 5276 5272 5268 5264 5259 5255 5252 5248 5244 5241 5240 5238 5235 5231 5226 5221 5216 5212 5209 5206 5203 5200 5197 5193 5189 5186 5183 5180 5177 5173 5171 5169 5167 5164 5162 5159 5157 5154 5152 5148 5145 5142 5139 5137 5134 5131 5129 5127 5125 5122 5121 5119 5117 5116 5114 5112 5111 5108 5106 5104 5101 5099 5097 5093 5090 5087
5321 5318 5315 5312 5310 5307 5304 5301 5299 5296 5294 5291 5288 5285 5282 5279 5276 5272 5269 5265 5262 5258 5254 5249 5245 5241 5237 5233 5231 5230 5228 5225 5221 5216 5210 5205 5201 5198 5196 5193 5190 5188 5185 5182 5179 5176 5173 5170 5167 5164 5162 5160 5157 5155 5153 5151 5148 5145 5142 5139 5136 5133 5131 5129 5126 5124 5122 5120 5118 5116 5115 5113 5111 5109 5107 5105 5103 5101 5098 5095 5093 5090 5087 5083 5080
5313 5310 5307 5304 5301 5298 5295 5292 5289 5286 5284 5281 5278 5275 5272 5269 5265 5262 5258 5255 5251 5247 5243 5238 5234 5230 5225 5222 5220 5219 5216 5213 5210 5206 5201 5196 5192 5188 5186 5184 5181 5178 5176 5173 5171 5168 5166 5163 5160 5157 5155 5153 5150 5148 5146 5144 5141 5139 5136 5133 5131 5128 5125 5123 5121 5119 5117 5115 5113 5112 5110 5108 5106 5104 5102 5100 5098 5096 5093 5090 5086 5083 5081 5078 5074
5305 5302 5298 5295 5292 5289 5286 5283 5280 5276 5273 5270 5267 5264 5261 5258 5254 5251 5248 5244 5240 5236 5232 5228 5223 5218 5213 5211 5209 5207 5205 5202 5198 5194 5190 5187 5183 5179 5177 5174 5171 5169 5167 5165 5162 5160 5158 5156 5153 5150 5148 5146 5144 5142 5140 5138 5135 5132 5130 5127 5125 5123 5120 5118 5116 5114 5112 5111 5109 5107 5106 5104 5102 5100 5098 5095 5093 5090 5087 5084 5081 5077 5074 5071 5068
5297 5293 5289 5286 5283 5280 5277 5274 5270 5266 5263 5260 5256 5253 5250 5246 5243 5239 5236 5232 5229 5224 5220 5217 5212 5206 5202 5199 5197 5195 5194 5191 5186 5182 5179 5176 5173 5170 5168 5165 5163 5161 5159 5157 5154 5152 5150 5148 5146 5143 5141 5139 5137 5135 5133 5131 5129 5126 5124 5122 5120 5117 5115 5113 5111 5110 5108 5106 5105 5103 5101 5100 5098 5096 5094 5091 5088 5085 5081 5079 5075 5072 5069 5065 5062
5288 5285 5281 5277 5273 5270 5266 5263 5259 5256 5253 5249 5245 5241 5238 5234 5231 5227 5224 5220 5216 5213 5209 5205 5200 5195 5190 5187 5184 5183 5181 5179 5175 5172 5169 5166 5163 5161 5158 5156 5154 5152 5151 5149 5146 5144 5143 5141 5139 5136 5134 5132 5130 5129 5127 5125 5123 5121 5118 5116 5114 5112 5110 5108 5107 5105 5104 5102 5101 5099 5098 5096 5094 5092 5089 5087 5084 5080 5077 5074 5071 5067 5064 5060 5057
5279 5275 5271 5268 5264 5260 5255 5252 5248 5244 5241 5237 5234 5230 5226 5222 5218 5215 5211 5208 5204 5200 5197 5193 5188 5183 5179 5176 5173 5171 5169 5167 5164 5162 5159 5156 5154 5151 5149 5147 5145 5144 5143 5141 5139 5137 5136 5134 5132 5129 5127 5126 5124 5123 5121 5118 5117 5115 5113 5111 5109 5107 5106 5104 5102 5101 5100 5098 5097 5095 5094 5092 5090 5088 5085 5082 5079 5076 5073 5070 5067 5063 5060 5056 5054
5269 5265 5261 5258 5254 5249 5245 5240 5236 5233 5229 5225 5221 5217 5213 5210 5206 5202 5199 5195 5191 5187 5184 5180 5176 5172 5168 5164 5161 5159 5158 5156 5154 5152 5150 5147 5145 5142 5140 5138 5137 5136 5135 5133 5131 5130 5129 5127 5125 5123 5121 5119 5118 5116 5114 5112 5111 5110 5108 5106 5104 5102 5101 5100 5098 5097 5096 5095 5093 5091 5090 5088 5086 5084 5081 5078 5076 5073 5069 5066 5063 5059 5056 5053 5051
5259 5254 5250 5246 5242 5238 5234 5229 5225 5221 5217 5213 5209 5205 5200 5196 5193 5189 5185 5182 5178 5174 5171 5167 5163 5160 5157 5154 5151 5149 5147 5145 5143 5142 5140 5138 5136 5134 5132 5131 5130 5128 5127 5126 5124 5123 5122 5120 5119 5117 5115 5113 5112 5110 5108 5107 5105 5104 5103 5101 5099 5098 5096 5095 5094 5093 5092 5091 5090 5088 5086 5084 5082 5080 5078 5075 5072 5069 5067 5064 5061 5057 5054 5052 5050
5248 5243 5239 5235 5230 5226 5222 5217 5213 5209 5204 5200 5196 5192 5187 5183 5179 5175 5171 5168 5164 5161 5158 5155 5152 5149 5146 5143 5141 5139 5137 5135 5133 5132 5130 5128 5127 5125 5124 5123 5122 5121 5120 5118 5117 5116 5115 5114 5113 5111 5109 5107 5106 5104 5102 5101 5100 5099 5098 5096 5095 5094 5092 5091 5090 5089 5089 5088 5087 5085 5083 5081 5079 5077 5075 5072 5069 5067 5064 5062 5059 5056 5054 5052 5050
5236 5232 5227 5222 5218 5213 5209 5204 5200 5195 5191 5186 5182 5178 5174 5170 5166 5162 5158 5155 5151 5149 5146 5143 5140 5138 5136 5133 5131 5129 5127 5126 5124 5123 5121 5120 5119 5118 5117 5116 5115 5114 5113 5112 5111 5110 5109 5108 5106 5105 5103 5101 5100 5098 5097 5096 5095 5094 5093 5091 5090 5090 5088 5087 5087 5086 5085 5085 5084 5082 5080 5078 5076 5074 5072 5069 5067 5064 5062 5060 5058 5055 5053 5051 5049
5224 5219 5214 5209 5205 5200 5195 5191 5186 5181 5177 5172 5168 5164 5160 5156 5153 5149 5146 5142 5140 5137 5134 5132 5130 5128 5126 5124 5121 5120 5118 5117 5116 5114 5113 5112 5111 5110 5109 5109 5108 5107 5106 5105 5104 5103 5103 5102 5100 5099 5097 5096 5094 5093 5092 5091 5090 5089 5088 5087 5086 5086 5085 5084 5083 5083 5082 5082 5081 5080 5078 5076 5074 5072 5070 5067 5065 5063 5061 5058 5057 5055 5052 5050 5049
5212 5207 5201 5196 5191 5186 5181 5176 5172 5167 5163 5158 5154 5151 5147 5143 5140 5137 5134 5131 5129 5126 5124 5122 5120 5118 5117 5115 5113 5111 5110 5109 5107 5106 5105 5105 5104 5103 5103 5102 5101 5100 5099 5099 5098 5097 5097 5096 5094 5093 5091 5090 5089 5087 5086 5085 5084 5084 5083 5083 5082 5082 5081 5081 5080 5080 5079 5079 5078 5077 5075 5074 5072 5070 5068 5066 5064 5062 5060 5058 5056 5054 5052 5051 5049
5198 5193 5187 5182 5177 5171 5166 5162 5158 5153 5149 5145 5142 5138 5135 5131 5128 5126 5123 5121 5119 5116 5114 5112 5111 5109 5108 5106 5105 5103 5102 5101 5100 5099 5098 5098 5097 5096 5096 5095 5094 5094 5093 5093 5092 5091 5091 5090 5088 5087 5086 5085 5083 5082 5081 5080 5080 5079 5079 5079 5078 5078 5078 5078 5078 5077 5077 5076 5075 5074 5073 5072 5070 5068 5067 5065 5063 5061 5060 5058 5056 5054 5053 5051 5050
5184 5178 5173 5168 5163 5158 5153 5149 5145 5141 5137 5133 5130 5127 5124 5121 5118 5116 5113 5111 5109 5107 5106 5104 5102 5101 5099 5098 5097 5096 5095 5094 5093 5092 5091 5091 5090 5090 5089 5089 5088 5088 5087 5087 5086 5086 5085 5084 5083 5082 5081 5079 5078 5077 5076 5075 5075 5075 5075 5075 5075 5075 5075 5075 5075 5075 5075 5074 5073 5072 5071 5070 5069 5067 5066 5064 5063 5061 5060 5058 5057 5055 5053 5052 5051